Weather History for KACQ - February, 2013

Change the Weather History Date:

Wednesday, February 13, 2013

  Actual Average Record
Temperature  
Mean Temperature 27 °F -  
Max Temperature 37 °F 25 °F 60 °F (1990)
Min Temperature 17 °F 5 °F -20 °F (1916)
Degree Days  
Heating Degree Days 38    
Moisture  
Dew Point 25 °F    
Average Humidity 88    
Maximum Humidity 93    
Minimum Humidity 75    
Precipitation  
Precipitation 0.01 in - - ()
Sea Level Pressure  
Sea Level Pressure 29.70 in    
Wind  
Wind Speed 7 mph (SW)    
Max Wind Speed 15 mph    
Max Gust Speed 20 mph    
Visibility 10 miles    
Events Rain    
Averages and records for this station are not official NWS values.
T = Trace of Precipitation, MM = Missing Value Source: NWS Daily Summary

Daily Weather History Graph

Daily Weather History Graph

Search for Another Location

Airport or City:

Trip Planner

Search our weather history database for the weather conditions in past years. The results will help you decide how hot, cold, wet, or windy it might be!

Date:

Astronomy

Feb. 13, 2013 Rise Set
Actual Time 7:15 AM CST 5:41 PM CST
Civil Twilight 6:46 AM CST 6:11 PM CST
Nautical Twilight 6:12 AM CST 6:45 PM CST
Astronomical Twilight 5:38 AM CST 7:18 PM CST
Moon 8:35 AM CST (2/13) 9:56 PM CST (2/13)
Length of Visible Light 11h 25m
Length of Day
10h 25m
Waxing Crescent, 14% of the Moon is Illuminated
Feb 13
Waxing Crescent
Feb 17
First Quarter
Feb 25
Full
Mar 4
Last Quarter
Mar 11
New

Hourly Weather History & Observations

Time (CST) Temp. Windchill Dew Point Humidity Pressure Visibility Wind Dir Wind Speed Gust Speed Precip Events Conditions
12:15 AM 19.4 °F 10.4 °F 17.6 °F 93% 29.83 in 10.0 mi WSW 6.9 mph - N/A   Clear
12:34 AM 19.4 °F 11.5 °F 17.6 °F 93% 29.83 in 10.0 mi WSW 5.8 mph - N/A   Clear
12:55 AM 19.4 °F 12.8 °F 17.6 °F 93% 29.82 in 10.0 mi SW 4.6 mph - N/A   Clear
1:15 AM 17.6 °F 10.7 °F 14.0 °F 86% 29.82 in 10.0 mi SW 4.6 mph - N/A   Clear
1:34 AM 17.6 °F 12.3 °F 14.0 °F 86% 29.81 in 10.0 mi WSW 3.5 mph - N/A   Scattered Clouds
1:55 AM 19.4 °F 12.8 °F 17.6 °F 93% 29.81 in 10.0 mi SW 4.6 mph - N/A   Mostly Cloudy
2:15 AM 17.6 °F 9.3 °F 15.8 °F 93% 29.81 in 10.0 mi WSW 5.8 mph - N/A   Scattered Clouds
2:35 AM 17.6 °F 10.7 °F 15.8 °F 93% 29.81 in 10.0 mi SW 4.6 mph - N/A   Clear
2:55 AM 17.6 °F 8.2 °F 14.0 °F 86% 29.81 in 10.0 mi WSW 6.9 mph - N/A   Clear
3:15 AM 17.6 °F 9.3 °F 14.0 °F 86% 29.80 in 10.0 mi WSW 5.8 mph - N/A   Clear
3:35 AM 17.6 °F 9.3 °F 15.8 °F 93% 29.80 in 10.0 mi WSW 5.8 mph - N/A   Clear
3:55 AM 17.6 °F 9.3 °F 14.0 °F 86% 29.79 in 10.0 mi SW 5.8 mph - N/A   Clear
4:15 AM 17.6 °F 9.3 °F 15.8 °F 93% 29.79 in 10.0 mi SW 5.8 mph - N/A   Clear
4:35 AM 17.6 °F 10.7 °F 14.0 °F 86% 29.79 in 10.0 mi SW 4.6 mph - N/A   Clear
4:55 AM 17.6 °F 9.3 °F 14.0 °F 86% 29.79 in 10.0 mi SW 5.8 mph - N/A   Clear
5:15 AM 19.4 °F 12.8 °F 15.8 °F 86% 29.78 in 10.0 mi SW 4.6 mph - N/A   Clear
5:35 AM 17.6 °F 10.7 °F 14.0 °F 86% 29.78 in 10.0 mi SW 4.6 mph - N/A   Clear
5:55 AM 17.6 °F 12.3 °F 14.0 °F 86% 29.78 in 10.0 mi SW 3.5 mph - N/A   Mostly Cloudy
6:15 AM 19.4 °F 14.3 °F 17.6 °F 93% 29.78 in 10.0 mi SW 3.5 mph - N/A   Overcast
6:35 AM 19.4 °F 14.3 °F 17.6 °F 93% 29.76 in 10.0 mi South 3.5 mph - N/A   Overcast
6:55 AM 19.4 °F 12.8 °F 17.6 °F 93% 29.76 in 10.0 mi SW 4.6 mph - N/A   Overcast
7:15 AM 19.4 °F 12.8 °F 17.6 °F 93% 29.77 in 10.0 mi SSW 4.6 mph - N/A   Overcast
7:35 AM 21.2 °F 14.9 °F 19.4 °F 93% 29.76 in 10.0 mi SSW 4.6 mph - N/A   Overcast
7:55 AM 21.2 °F 12.6 °F 19.4 °F 93% 29.76 in 10.0 mi SSW 6.9 mph - N/A   Overcast
8:15 AM 21.2 °F 11.7 °F 19.4 °F 93% 29.76 in 10.0 mi SW 8.1 mph - N/A   Scattered Clouds
8:35 AM 23.0 °F 15.8 °F 21.2 °F 93% 29.76 in 10.0 mi SW 5.8 mph - N/A   Clear
8:55 AM 23.0 °F 17.0 °F 21.2 °F 93% 29.76 in 10.0 mi SW 4.6 mph - N/A   Clear
9:15 AM 24.8 °F 19.1 °F 21.2 °F 86% 29.76 in 10.0 mi SSW 4.6 mph - N/A   Scattered Clouds
9:35 AM 26.6 °F 21.2 °F 23.0 °F 86% 29.75 in 10.0 mi SW 4.6 mph - N/A   Mostly Cloudy
9:55 AM 26.6 °F 19.1 °F 23.0 °F 86% 29.75 in 10.0 mi SSW 6.9 mph - N/A   Overcast
10:15 AM 30.2 °F 24.3 °F 24.8 °F 80% 29.75 in 10.0 mi SSW 5.8 mph - N/A   Overcast
10:36 AM 32.0 °F 24.8 °F 26.6 °F 80% 29.74 in 10.0 mi SSW 8.1 mph - N/A   Mostly Cloudy
10:55 AM 32.0 °F 24.2 °F 26.6 °F 80% 29.74 in 10.0 mi SSW 9.2 mph - N/A   Mostly Cloudy
11:16 AM 32.0 °F 24.8 °F 26.6 °F 80% 29.73 in 10.0 mi SSW 8.1 mph - N/A   Mostly Cloudy
11:35 AM 33.8 °F 26.4 °F 28.4 °F 81% 29.73 in 10.0 mi SSW 9.2 mph - N/A   Scattered Clouds
11:55 AM 33.8 °F 27.0 °F 26.6 °F 75% 29.73 in 10.0 mi SSW 8.1 mph - N/A   Scattered Clouds
12:15 PM 35.6 °F 28.6 °F 30.2 °F 81% 29.72 in 10.0 mi SSW 9.2 mph - N/A   Clear
12:35 PM 35.6 °F 28.6 °F 30.2 °F 81% 29.71 in 10.0 mi SSW 9.2 mph - N/A   Scattered Clouds
12:55 PM 35.6 °F 28.0 °F 30.2 °F 81% 29.70 in 10.0 mi SSW 10.4 mph - N/A   Mostly Cloudy
1:15 PM 35.6 °F 28.0 °F 30.2 °F 81% 29.70 in 10.0 mi SSW 10.4 mph - N/A   Scattered Clouds
1:35 PM 35.6 °F 28.6 °F 30.2 °F 81% 29.69 in 10.0 mi SSW 9.2 mph - N/A   Clear
1:55 PM 35.6 °F 28.0 °F 32.0 °F 87% 29.68 in 10.0 mi South 10.4 mph - N/A   Clear
2:16 PM 37.4 °F 30.8 °F 32.0 °F 81% 29.67 in 10.0 mi South 9.2 mph - N/A   Scattered Clouds
2:35 PM 35.6 °F 28.0 °F 30.2 °F 81% 29.66 in 10.0 mi South 10.4 mph - N/A   Mostly Cloudy
2:55 PM 37.4 °F 32.1 °F 32.0 °F 81% 29.66 in 10.0 mi South 6.9 mph - N/A   Mostly Cloudy
3:16 PM 35.6 °F 29.9 °F 32.0 °F 87% 29.66 in 10.0 mi South 6.9 mph - N/A   Overcast
3:35 PM 35.6 °F 30.7 °F 32.0 °F 87% 29.65 in 10.0 mi South 5.8 mph - N/A   Overcast
3:55 PM 35.6 °F 30.7 °F 32.0 °F 87% 29.65 in 10.0 mi South 5.8 mph - N/A   Mostly Cloudy
4:15 PM 35.6 °F 29.9 °F 32.0 °F 87% 29.65 in 10.0 mi SSW 6.9 mph - N/A   Overcast
4:36 PM 35.6 °F 30.7 °F 32.0 °F 87% 29.65 in 10.0 mi SW 5.8 mph - N/A   Overcast
4:55 PM 35.6 °F 31.7 °F 32.0 °F 87% 29.64 in 10.0 mi South 4.6 mph - N/A   Overcast
5:15 PM 35.6 °F 30.7 °F 32.0 °F 87% 29.63 in 10.0 mi SSE 5.8 mph - N/A   Overcast
5:35 PM 35.6 °F 29.9 °F 32.0 °F 87% 29.63 in 10.0 mi SSE 6.9 mph - N/A   Overcast
5:55 PM 35.6 °F 29.9 °F 32.0 °F 87% 29.63 in 10.0 mi South 6.9 mph - N/A   Overcast
6:15 PM 35.6 °F 30.7 °F 32.0 °F 87% 29.63 in 10.0 mi SSW 5.8 mph - N/A Rain Light Rain
6:36 PM 35.6 °F 29.9 °F 32.0 °F 87% 29.62 in 10.0 mi South 6.9 mph - N/A Rain Rain
6:56 PM 35.6 °F 28.0 °F 32.0 °F 87% 29.61 in 10.0 mi SW 10.4 mph - 0.01 in   Light Drizzle
7:15 PM 35.6 °F 26.2 °F 32.0 °F 87% 29.61 in 10.0 mi SW 15.0 mph 19.6 mph N/A   Light Drizzle
7:35 PM 35.6 °F 26.6 °F 32.0 °F 87% 29.61 in 10.0 mi SW 13.8 mph - N/A   Overcast
7:55 PM 35.6 °F 27.5 °F 32.0 °F 87% 29.60 in 10.0 mi SW 11.5 mph - N/A   Overcast
8:15 PM 35.6 °F 29.2 °F 32.0 °F 87% 29.60 in 7.0 mi SW 8.1 mph - N/A Rain Light Rain
8:35 PM 33.8 °F 27.0 °F 32.0 °F 93% 29.59 in 10.0 mi SW 8.1 mph - N/A   Light Drizzle
8:56 PM 33.8 °F 27.7 °F 32.0 °F 93% 29.58 in 10.0 mi SW 6.9 mph - N/A   Overcast
9:15 PM 33.8 °F 26.4 °F 32.0 °F 93% 29.58 in 10.0 mi SW 9.2 mph - N/A   Overcast
9:36 PM 33.8 °F 27.0 °F 32.0 °F 93% 29.58 in 10.0 mi SW 8.1 mph - N/A   Overcast
9:55 PM 33.8 °F 27.0 °F 32.0 °F 93% 29.58 in 10.0 mi WSW 8.1 mph - N/A   Overcast
10:15 PM 33.8 °F 24.8 °F 32.0 °F 93% 29.58 in 10.0 mi WSW 12.7 mph - N/A   Overcast
10:35 PM 33.8 °F 25.3 °F 32.0 °F 93% 29.58 in 10.0 mi West 11.5 mph - N/A   Overcast
10:55 PM 33.8 °F 25.3 °F 30.2 °F 87% 29.58 in 10.0 mi West 11.5 mph - N/A   Overcast
11:14 PM 33.8 °F 25.3 °F 30.2 °F 87% 29.58 in 10.0 mi West 11.5 mph - N/A   Overcast
11:35 PM 33.8 °F 25.8 °F 32.0 °F 93% 29.58 in 7.0 mi West 10.4 mph 16.1 mph N/A Rain Light Rain
11:55 PM 33.8 °F 27.0 °F 32.0 °F 93% 29.59 in 5.0 mi West 8.1 mph - N/A   Overcast